Weather History for Three Rivers, MI

Change the Weather History Date:

Wednesday, January 18, 2012

  Actual Average Record
Temperature  
Mean Temperature 23 °F -  
Max Temperature 26 °F 31 °F 58 °F (1973)
Min Temperature 20 °F 15 °F -7 °F (1954)
Degree Days  
Heating Degree Days 42    
Moisture  
Dew Point 18 °F    
Average Humidity 82    
Maximum Humidity 93    
Minimum Humidity 71    
Precipitation  
Precipitation 0.00 in - - ()
Sea Level Pressure  
Sea Level Pressure 30.15 in    
Wind  
Wind Speed 9 mph (WSW)    
Max Wind Speed 14 mph    
Max Gust Speed 18 mph    
Visibility 9 miles    
Events Snow    
Averages and records for this station are not official NWS values.
T = Trace of Precipitation, MM = Missing Value Source: NWS Daily Summary

Daily Weather History Graph

Daily Weather History Graph

Search for Another Location

Airport:

Trip Planner

Search our weather history database for the weather conditions in past years. The results will help you decide how hot, cold, wet, or windy it might be!

Date:

Astronomy

Jan. 18, 2012 Rise Set
Actual Time 8:06 AM EST 5:39 PM EST
Civil Twilight 7:35 AM EST 6:09 PM EST
Nautical Twilight 7:01 AM EST 6:44 PM EST
Astronomical Twilight 6:28 AM EST 7:17 PM EST
Moon 3:35 AM EST (1/18) 1:17 PM EST (1/18)
Length of Visible Light 10h 33m
Length of Day
9h 32m
Waning Crescent, 25% of the Moon is Illuminated
Jan 18
Waning Crescent
Jan 23
New
Jan 30
First Quarter
Feb 7
Full
Feb 14
Last Quarter

Hourly Weather History & Observations

Time (EST) Temp. Windchill Dew Point Humidity Pressure Visibility Wind Dir Wind Speed Gust Speed Precip Events Conditions
12:14 AM 26.6 °F 16.2 °F 23.0 °F 86% 30.10 in 4.0 mi WNW 11.5 mph - N/A Snow Light Snow
12:35 AM 24.8 °F 14.6 °F 23.0 °F 93% 30.11 in 5.0 mi WNW 10.4 mph - N/A Snow Light Snow
1:14 AM 24.8 °F 15.3 °F 19.4 °F 80% 30.12 in 10.0 mi WNW 9.2 mph - N/A   Overcast
1:35 AM 24.8 °F 14.0 °F 19.4 °F 80% 30.13 in 10.0 mi WNW 11.5 mph - N/A Snow Light Snow
1:55 AM 24.8 °F 14.0 °F 19.4 °F 80% 30.14 in 10.0 mi NW 11.5 mph 18.4 mph N/A Snow Light Snow
2:14 AM 23.0 °F 12.4 °F 19.4 °F 86% 30.15 in 10.0 mi NW 10.4 mph 18.4 mph N/A Snow Light Snow
2:35 AM 23.0 °F 13.1 °F 19.4 °F 86% 30.15 in 10.0 mi NW 9.2 mph 16.1 mph N/A   Overcast
2:54 AM 23.0 °F 13.1 °F 19.4 °F 86% 30.16 in 10.0 mi WNW 9.2 mph - N/A Snow Light Snow
3:15 AM 23.0 °F 13.1 °F 19.4 °F 86% 30.17 in 10.0 mi WNW 9.2 mph - N/A Snow Light Snow
3:35 AM 23.0 °F 11.7 °F 19.4 °F 86% 30.17 in 7.0 mi WNW 11.5 mph - N/A Snow Light Snow
3:55 AM 23.0 °F 15.8 °F 19.4 °F 86% 30.18 in 7.0 mi WNW 5.8 mph - N/A Snow Light Snow
4:15 AM 23.0 °F 15.8 °F 21.2 °F 93% 30.18 in 7.0 mi WNW 5.8 mph - N/A Snow Light Snow
4:35 AM 23.0 °F 15.8 °F 21.2 °F 93% 30.17 in 7.0 mi West 5.8 mph - N/A Snow Light Snow
4:54 AM 23.0 °F 15.8 °F 19.4 °F 86% 30.18 in 10.0 mi WNW 5.8 mph - N/A Snow Light Snow
5:14 AM 23.0 °F 14.7 °F 19.4 °F 86% 30.18 in 10.0 mi WNW 6.9 mph - N/A Snow Light Snow
5:35 AM 23.0 °F 13.9 °F 19.4 °F 86% 30.19 in 10.0 mi WNW 8.1 mph - N/A Snow Light Snow
5:54 AM 23.0 °F 14.7 °F 19.4 °F 86% 30.20 in 7.0 mi WNW 6.9 mph - N/A Snow Light Snow
6:15 AM 23.0 °F 17.0 °F 19.4 °F 86% 30.20 in 10.0 mi WNW 4.6 mph - N/A Snow Light Snow
6:35 AM 23.0 °F 17.0 °F 19.4 °F 86% 30.20 in 7.0 mi WNW 4.6 mph - N/A Snow Light Snow
6:54 AM 23.0 °F 17.0 °F 19.4 °F 86% 30.21 in 10.0 mi WNW 4.6 mph - N/A Snow Light Snow
7:15 AM 23.0 °F 18.4 °F 19.4 °F 86% 30.21 in 5.0 mi WNW 3.5 mph - N/A Snow Light Snow
7:35 AM 23.0 °F 18.4 °F 19.4 °F 86% 30.21 in 10.0 mi WNW 3.5 mph - N/A Snow Light Snow
7:54 AM 23.0 °F 18.4 °F 19.4 °F 86% 30.22 in 10.0 mi West 3.5 mph - N/A Snow Light Snow
8:15 AM 23.0 °F 15.8 °F 19.4 °F 86% 30.22 in 7.0 mi West 5.8 mph - N/A Snow Light Snow
8:35 AM 23.0 °F 17.0 °F 19.4 °F 86% 30.22 in 5.0 mi West 4.6 mph - N/A Snow Light Snow
8:54 AM 23.0 °F 14.7 °F 19.4 °F 86% 30.23 in 10.0 mi West 6.9 mph - N/A Snow Light Snow
9:15 AM 23.0 °F 15.8 °F 19.4 °F 86% 30.24 in 10.0 mi West 5.8 mph - N/A Snow Light Snow
9:35 AM 23.0 °F 14.7 °F 17.6 °F 80% 30.25 in 10.0 mi West 6.9 mph - N/A Snow Light Snow
9:54 AM 23.0 °F 17.0 °F 17.6 °F 80% 30.25 in 10.0 mi WSW 4.6 mph - N/A   Overcast
10:02 AM 23.0 °F 17.0 °F 17.6 °F 80% 30.25 in 10.0 mi WSW 4.6 mph - N/A   Overcast
10:35 AM 23.0 °F 14.7 °F 18.0 °F 81% 30.25 in 10.0 mi SW 6.9 mph - N/A Snow Light Snow
10:54 AM 23.5 °F 15.4 °F 18.0 °F 79% 30.24 in 10.0 mi SW 6.9 mph - N/A   Scattered Clouds
11:15 AM 23.7 °F 14.7 °F 18.1 °F 79% 30.24 in 10.0 mi SW 8.1 mph - N/A   Scattered Clouds
11:35 AM - - - N/A% - - North - - N/A   Unknown
11:54 AM 24.3 °F 15.4 °F 17.6 °F 76% 30.22 in 10.0 mi SSW 8.1 mph - N/A   Overcast
12:15 PM 24.4 °F 16.5 °F 18.1 °F 77% 30.21 in 10.0 mi SSW 6.9 mph - N/A   Mostly Cloudy
12:34 PM 24.6 °F 15.8 °F 18.1 °F 76% 30.20 in 10.0 mi SSW 8.1 mph - N/A   Mostly Cloudy
12:55 PM 23.5 °F 14.5 °F 16.7 °F 75% 30.19 in 10.0 mi SW 8.1 mph - N/A   Mostly Cloudy
1:15 PM 24.4 °F 15.6 °F 16.9 °F 73% 30.18 in 10.0 mi SW 8.1 mph - N/A   Scattered Clouds
1:35 PM 24.6 °F 15.1 °F 16.9 °F 72% 30.17 in 10.0 mi SSW 9.2 mph - N/A   Mostly Cloudy
1:55 PM 23.9 °F 15.8 °F 16.5 °F 73% 30.16 in 10.0 mi SW 6.9 mph - N/A   Mostly Cloudy
2:15 PM 25.2 °F 15.1 °F 17.2 °F 72% 30.15 in 10.0 mi South 10.4 mph - N/A   Mostly Cloudy
2:34 PM 24.6 °F 15.8 °F 16.5 °F 71% 30.14 in 10.0 mi SSW 8.1 mph - N/A   Scattered Clouds
3:15 PM 24.4 °F 14.9 °F 16.2 °F 71% 30.12 in 10.0 mi SSW 9.2 mph - N/A   Clear
3:34 PM 24.6 °F 15.1 °F 16.5 °F 71% 30.12 in 10.0 mi South 9.2 mph - N/A   Clear
3:55 PM 23.9 °F 13.5 °F 16.5 °F 73% 30.12 in 10.0 mi South 10.4 mph - N/A   Clear
4:15 PM 23.9 °F 14.2 °F 15.8 °F 71% 30.11 in 10.0 mi South 9.2 mph - N/A   Clear
4:35 PM 23.9 °F 14.2 °F 15.8 °F 71% 30.10 in 10.0 mi South 9.2 mph - N/A   Clear
4:55 PM 23.0 °F 13.9 °F 16.2 °F 75% 30.10 in 10.0 mi South 8.1 mph - N/A   Clear
5:14 PM 22.6 °F 12.6 °F 15.8 °F 75% 30.10 in 10.0 mi SSW 9.2 mph - N/A   Clear
5:35 PM 22.1 °F 11.3 °F 15.8 °F 77% 30.10 in 10.0 mi SSW 10.4 mph - N/A   Clear
5:55 PM 21.7 °F 11.5 °F 16.0 °F 78% 30.09 in 10.0 mi SSW 9.2 mph - N/A   Clear
6:14 PM 21.0 °F 12.4 °F 16.0 °F 81% 30.08 in 10.0 mi South 6.9 mph - N/A   Clear
6:35 PM 20.8 °F 12.1 °F 16.3 °F 83% 30.07 in 10.0 mi South 6.9 mph - N/A   Clear
6:54 PM 20.1 °F 12.3 °F 16.3 °F 85% 30.07 in 10.0 mi South 5.8 mph - N/A   Clear
7:15 PM 20.7 °F 9.5 °F 16.7 °F 85% 30.06 in 10.0 mi South 10.4 mph - N/A   Clear
7:35 PM 21.0 °F 9.9 °F 16.7 °F 83% 30.05 in 10.0 mi South 10.4 mph - N/A   Clear
7:54 PM 21.2 °F 9.5 °F 17.4 °F 85% 30.05 in 10.0 mi South 11.5 mph - N/A   Scattered Clouds
8:15 PM 21.2 °F 9.5 °F 17.4 °F 85% 30.04 in 10.0 mi South 11.5 mph - N/A   Mostly Cloudy
8:35 PM 21.6 °F 11.3 °F 17.8 °F 85% 30.03 in 10.0 mi South 9.2 mph - N/A   Mostly Cloudy
8:54 PM 21.9 °F 10.4 °F 18.0 °F 85% 30.02 in 10.0 mi South 11.5 mph - N/A   Overcast
9:15 PM 22.1 °F 9.5 °F 18.3 °F 85% 30.00 in 10.0 mi South 13.8 mph 18.4 mph N/A   Overcast
9:35 PM 22.6 °F 10.7 °F 18.5 °F 84% 29.98 in 10.0 mi South 12.7 mph 18.4 mph N/A   Overcast
9:54 PM 22.8 °F 10.9 °F 18.9 °F 85% 29.98 in 10.0 mi South 12.7 mph 16.1 mph N/A   Overcast
10:14 PM 23.0 °F 11.1 °F 19.0 °F 85% 29.97 in 10.0 mi South 12.7 mph - N/A   Mostly Cloudy
10:34 PM 23.0 °F 11.1 °F 19.0 °F 85% 29.95 in 10.0 mi SSE 12.7 mph 17.3 mph N/A   Mostly Cloudy
10:55 PM 23.0 °F 11.1 °F 18.9 °F 84% 29.93 in 10.0 mi SSE 12.7 mph - N/A   Scattered Clouds
11:14 PM 22.8 °F 12.2 °F 18.9 °F 85% 29.93 in 10.0 mi South 10.4 mph - N/A   Scattered Clouds
11:34 PM 23.0 °F 10.6 °F 19.0 °F 85% 29.95 in 10.0 mi South 13.8 mph - N/A   Overcast
11:55 PM 23.0 °F 11.7 °F 19.0 °F 85% 29.95 in 10.0 mi South 11.5 mph 18.4 mph N/A   Mostly Cloudy